Wind_Speed
21 22 21 19 19 19 18 18 17 15 13 14 14 14 15 16 17 17 17 18 18 18 19 19 20 20 21 21 22 23 23 23 24 24 25 25 26 27 27 28 28 28 28 28
20 20 19 20 20 19 18 17 16 15 15 15 15 15 16 17 18 19 18 19 18 19 19 20 20 21 22 23 23 23 23 24 24 24 24 26 26 27 28 28 28 27 27 27
19 20 21 21 20 20 18 17 15 15 15 16 17 17 16 16 18 19 19 18 19 21 20 20 21 21 22 23 24 24 25 25 24 24 25 26 27 28 28 28 27 27 26 27
20 20 20 20 20 19 18 15 15 15 15 16 17 18 17 17 18 19 20 20 20 21 21 21 21 22 23 23 24 24 25 25 25 25 25 26 27 27 27 26 26 25 25 25
19 18 18 19 19 18 17 16 16 16 16 17 18 19 19 20 20 21 21 21 21 21 21 21 21 22 23 24 24 25 25 26 26 26 26 26 26 27 25 25 25 26 25 26
17 18 17 17 18 18 17 18 18 18 18 20 19 21 21 21 21 22 23 23 23 23 23 22 21 21 23 24 25 26 26 26 26 27 27 27 27 26 25 25 25 25 25 25
17 17 17 17 18 19 19 20 20 20 20 21 21 23 23 22 22 22 22 22 22 23 23 22 21 21 22 24 25 25 25 25 26 27 26 26 26 26 26 26 25 25 24 24
17 16 17 17 17 18 20 20 20 21 21 21 22 24 23 22 22 22 22 24 24 23 23 22 22 23 24 24 24 24 24 25 26 25 26 25 25 25 25 25 24 24 23 23
15 15 15 17 17 18 19 20 19 20 20 21 22 22 21 21 22 23 23 24 23 22 21 21 22 24 24 24 23 23 24 25 25 24 25 25 24 24 24 23 23 23 23 23
15 15 16 17 18 19 19 19 20 21 21 22 22 21 21 20 22 23 22 22 22 21 21 21 23 24 22 22 22 23 24 24 24 24 24 25 24 24 23 23 23 22 23 23
15 16 16 17 19 20 20 20 20 21 21 21 22 20 20 21 21 21 21 21 21 21 20 21 21 21 21 21 22 23 23 23 23 23 24 24 23 23 22 22 22 22 22 22
16 16 17 17 17 18 19 20 19 21 20 21 21 21 19 21 20 21 21 20 19 19 19 19 20 21 21 21 22 22 22 22 22 22 22 22 21 21 22 21 22 22 22 22
15 16 17 17 18 18 19 19 20 19 20 20 21 21 20 20 21 21 21 20 19 19 18 18 19 20 20 20 20 20 21 21 21 21 21 21 20 20 21 21 21 20 20 20
15 15 15 15 16 19 20 20 19 19 20 21 21 21 20 21 22 22 22 21 20 19 20 18 18 18 19 19 19 19 19 19 19 19 19 19 19 19 19 19 18 18 17 16
15 14 14 15 16 18 19 19 18 19 20 20 20 20 20 21 21 21 21 20 19 19 18 17 17 17 17 18 17 17 18 18 18 17 17 17 17 17 16 15 15 14 15 14
14 14 15 15 15 16 18 18 19 19 19 19 19 19 19 20 21 20 20 20 20 18 17 16 15 16 17 17 17 16 16 16 16 16 16 16 16 15 14 14 13 13 13 13
14 15 15 16 16 16 17 16 16 16 16 17 17 18 18 19 19 19 19 18 18 16 15 15 14 15 15 15 15 15 15 15 15 15 15 15 15 14 13 13 12 12 11 10
13 13 14 14 15 16 15 15 15 15 15 15 15 16 17 17 17 17 16 17 15 14 13 13 14 14 14 14 14 14 14 14 13 13 14 14 13 13 12 11 11 10 9 8
10 10 11 11 13 13 13 12 14 14 13 12 13 14 15 15 15 15 15 15 13 13 13 13 13 14 13 13 12 12 12 12 12 12 13 12 11 11 11 10 9 8 7 6
10 9 9 10 12 12 10 11 11 11 11 11 11 12 12 12 13 13 14 13 13 13 13 13 12 11 11 11 11 11 11 11 11 11 11 10 10 9 9 8 7 6 6 6
8 8 8 8 9 9 9 9 9 10 9 9 10 10 11 11 12 11 12 11 11 11 11 11 10 10 11 10 9 9 9 9 9 9 9 8 8 8 8 7 7 6 6 6
7 7 7 7 7 7 7 7 8 8 8 8 9 9 9 10 10 10 10 9 9 9 9 9 9 9 9 8 8 7 7 7 7 7 7 6 6 6 6 7 6 6 6 7
6 6 6 6 5 5 6 7 7 7 7 7 8 8 9 9 9 8 7 7 8 8 8 8 7 7 7 7 7 7 6 6 6 5 5 5 5 6 5 6 7 7 7 7
4 4 4 4 4 4 4 5 5 6 6 7 8 8 8 8 7 7 6 6 7 7 7 7 6 6 6 6 6 5 5 5 4 5 5 5 5 5 5 5 6 7 6 6
5 4 4 3 3 3 3 3 4 4 5 5 6 6 7 6 6 6 6 6 7 6 5 5 5 5 5 5 4 4 3 4 4 4 4 5 5 5 5 6 6 6 6 5
4 3 3 2 1 1 1 1 1 2 4 4 5 6 5 5 6 6 6 7 7 6 5 5 5 4 4 4 4 4 4 4 4 4 4 5 5 5 5 6 6 6 5 5
Wind_Direction
195 198 198 198 198 197 200 201 206 213 222 235 243 249 257 265 270 276 276 277 283 284 287 290 292 292 290 289 290 292 293 293 293 294 295 295 294 292 290 289 285 282 280 279
192 192 189 191 194 196 199 202 209 219 223 233 245 257 266 271 275 278 281 279 278 284 287 290 291 292 292 291 289 290 293 294 294 295 296 295 294 293 291 288 284 280 278 276
187 185 187 191 196 198 201 206 212 220 225 236 249 261 269 272 273 276 278 278 280 285 285 286 288 291 292 291 290 290 292 292 293 295 296 294 294 293 290 287 284 280 276 273
186 188 190 194 197 202 204 208 211 220 233 241 251 262 265 269 275 280 283 282 286 286 283 283 286 289 291 291 290 291 292 293 294 294 295 295 295 294 291 287 285 284 280 276
186 190 197 201 203 206 205 207 215 224 231 240 250 261 265 269 276 282 285 286 287 290 286 284 284 287 289 291 291 291 293 295 295 295 296 297 298 295 293 289 285 283 281 278
190 194 200 205 208 210 208 211 218 227 235 243 252 262 268 272 280 283 283 285 286 292 293 289 284 285 288 290 290 291 294 295 295 295 296 296 297 294 292 289 285 283 283 281
197 199 201 205 208 212 214 215 222 231 240 249 255 263 270 276 282 283 284 287 286 290 291 290 287 289 291 290 292 293 296 296 296 297 296 295 296 295 292 289 286 284 282 280
205 206 208 210 213 217 219 221 230 238 246 252 256 263 269 276 282 283 285 286 287 289 291 293 292 291 294 292 293 295 296 297 298 298 297 296 296 296 294 290 286 283 281 279
215 217 217 218 218 221 224 226 233 243 249 255 259 266 271 275 283 287 289 287 291 288 290 293 292 293 296 295 296 297 297 298 299 300 299 298 296 296 295 292 290 286 281 278
221 224 224 220 221 224 229 234 240 244 251 257 262 266 275 279 284 288 285 287 292 289 289 292 294 294 295 296 298 298 298 299 300 300 299 299 297 295 294 292 291 288 284 280
229 230 228 226 224 226 228 233 241 247 254 262 266 273 281 286 293 296 290 293 291 293 291 292 296 296 296 298 300 301 301 302 301 300 299 299 298 297 294 292 291 289 287 284
234 235 234 231 231 232 234 236 242 246 253 261 270 278 285 290 296 301 301 296 293 292 293 294 296 297 299 300 301 302 304 305 303 301 300 300 298 298 296 293 293 291 289 286
237 237 238 236 235 236 237 239 245 249 254 262 270 278 283 289 296 301 302 297 293 293 294 293 295 297 300 302 303 305 306 306 305 302 304 305 303 301 300 297 295 293 290 287
239 239 241 241 240 241 243 245 250 253 257 262 268 276 279 288 292 297 299 296 296 297 298 295 297 300 303 304 304 306 308 309 309 307 307 308 308 307 305 303 299 293 291 287
236 237 238 237 240 244 243 244 250 253 259 265 269 273 279 284 290 294 297 297 299 300 298 298 300 303 305 306 305 307 309 310 312 311 311 312 310 308 309 310 305 297 290 287
236 233 236 237 240 242 244 247 250 254 260 268 272 273 279 284 288 291 295 298 302 304 301 302 303 305 305 305 306 307 307 309 311 312 312 312 313 313 314 313 308 305 298 293
233 234 238 240 240 245 250 253 255 258 265 269 272 279 282 286 288 291 296 301 305 306 308 312 308 309 309 308 308 308 308 309 312 313 313 313 314 314 315 315 313 310 306 300
232 237 242 245 243 247 252 251 256 262 269 271 274 279 282 287 293 295 299 304 306 311 315 315 312 308 309 309 309 308 310 312 312 316 319 318 317 318 319 319 318 320 319 311
225 233 240 240 243 251 253 255 259 267 273 275 278 281 284 287 294 301 304 305 309 312 314 315 313 312 311 311 312 313 313 313 315 318 320 322 323 324 328 329 328 328 327 325
223 229 238 241 247 251 251 257 265 273 277 281 284 291 292 293 297 303 306 307 307 310 315 316 314 313 315 315 316 317 319 320 319 320 322 326 328 331 336 339 340 343 345 343
227 236 239 241 244 255 258 261 269 278 285 285 289 296 299 299 302 304 306 309 312 315 318 320 318 317 317 315 317 320 324 324 324 324 325 329 334 340 347 351 353 354 356 356
232 239 241 250 255 257 259 262 272 283 292 294 298 306 310 309 310 311 309 309 314 319 322 323 322 323 328 327 323 322 323 326 328 331 332 335 343 347 351 356 1 4 5 7
232 239 241 245 252 263 264 267 272 282 291 296 303 312 316 320 323 323 322 322 323 327 331 332 333 332 334 334 332 329 329 333 338 345 349 354 356 354 356 2 5 7 6 7
237 235 240 254 264 268 278 271 272 283 296 306 308 312 321 327 334 336 332 329 330 331 335 338 339 339 338 337 340 341 341 347 354 359 0 4 6 6 5 8 8 7 10 16
238 248 248 260 271 281 295 284 275 286 304 324 327 322 332 344 350 351 350 348 347 346 344 345 345 343 344 347 354 359 4 7 5 6 11 12 15 19 23 18 18 22 26 31
232 226 225 238 252 278 323 346 319 320 330 346 352 350 359 9 10 8 5 5 7 7 7 8 9 9 11 16 20 18 13 11 13 17 21 25 33 33 30 30 33 34 36 41
Height
5841 5845 5849 5853 5857 5860 5862 5864 5866 5868 5869 5870 5872 5873 5873 5874 5874 5875 5874 5874 5874 5873 5872 5871 5870 5869 5867 5865 5864 5862 5860 5858 5856 5854 5852 5849 5847 5844 5842 5840 5839 5837 5836 5835
5841 5844 5848 5851 5853 5856 5858 5861 5863 5864 5866 5867 5868 5869 5870 5870 5870 5870 5870 5870 5870 5869 5867 5866 5866 5864 5862 5860 5859 5857 5855 5853 5851 5848 5846 5843 5840 5838 5836 5834 5831 5830 5829 5828
5839 5843 5845 5848 5851 5853 5856 5858 5860 5861 5862 5863 5865 5866 5866 5867 5866 5866 5866 5866 5866 5864 5863 5862 5861 5859 5857 5855 5853 5851 5849 5847 5845 5842 5840 5837 5834 5831 5829 5827 5825 5823 5822 5821
5836 5840 5842 5845 5848 5851 5853 5855 5857 5858 5860 5860 5862 5862 5863 5862 5862 5861 5861 5861 5860 5859 5858 5856 5855 5854 5852 5850 5848 5845 5843 5841 5838 5836 5833 5831 5828 5825 5822 5820 5818 5816 5815 5814
5835 5838 5841 5844 5846 5849 5851 5853 5854 5855 5856 5858 5858 5858 5859 5858 5858 5857 5856 5856 5855 5854 5851 5850 5849 5848 5846 5844 5842 5840 5837 5834 5832 5829 5827 5824 5821 5818 5815 5813 5811 5810 5808 5807
5834 5836 5839 5842 5845 5847 5849 5850 5851 5852 5853 5854 5855 5855 5855 5854 5854 5853 5852 5851 5850 5849 5847 5845 5843 5842 5840 5838 5836 5833 5831 5828 5826 5823 5820 5817 5814 5811 5809 5807 5805 5803 5801 5800
5832 5835 5837 5839 5842 5844 5845 5847 5849 5849 5850 5851 5851 5850 5851 5850 5849 5848 5847 5846 5845 5844 5842 5839 5837 5836 5834 5832 5830 5827 5825 5822 5819 5816 5813 5810 5807 5804 5802 5800 5798 5796 5794 5793
5830 5833 5835 5837 5839 5840 5842 5844 5846 5846 5847 5848 5847 5846 5847 5846 5844 5843 5842 5841 5839 5838 5836 5834 5832 5830 5828 5825 5823 5821 5818 5816 5813 5809 5806 5803 5800 5797 5795 5792 5791 5789 5787 5786
5828 5831 5833 5835 5836 5838 5839 5840 5842 5843 5843 5843 5843 5842 5842 5841 5839 5838 5836 5835 5833 5832 5830 5829 5826 5824 5822 5819 5817 5815 5812 5809 5806 5803 5800 5796 5793 5791 5788 5786 5784 5782 5780 5779
5825 5828 5830 5832 5833 5835 5836 5837 5838 5839 5838 5838 5838 5837 5838 5836 5835 5833 5830 5829 5827 5826 5825 5823 5821 5818 5816 5813 5811 5809 5806 5803 5799 5796 5793 5790 5787 5784 5782 5779 5777 5775 5774 5772
5822 5825 5826 5828 5829 5830 5832 5833 5833 5834 5834 5834 5833 5835 5834 5832 5830 5828 5825 5824 5822 5820 5819 5817 5815 5813 5810 5807 5805 5803 5800 5796 5793 5789 5786 5783 5781 5778 5776 5773 5771 5769 5767 5765
5819 5821 5822 5824 5826 5827 5828 5829 5830 5830 5830 5829 5829 5832 5828 5827 5825 5823 5820 5818 5817 5815 5813 5811 5809 5807 5804 5802 5799 5796 5793 5790 5786 5783 5780 5777 5775 5772 5770 5767 5765 5763 5760 5759
5816 5818 5819 5821 5823 5824 5824 5824 5825 5826 5826 5825 5825 5827 5823 5821 5820 5818 5816 5814 5812 5809 5808 5806 5804 5801 5799 5796 5793 5790 5787 5784 5781 5778 5775 5772 5769 5767 5764 5761 5759 5756 5754 5752
5813 5814 5816 5817 5818 5819 5820 5821 5821 5822 5822 5821 5821 5820 5819 5817 5815 5813 5811 5809 5806 5804 5802 5800 5798 5796 5793 5790 5788 5785 5782 5779 5776 5773 5770 5767 5764 5762 5759 5756 5753 5750 5749 5747
5809 5811 5812 5813 5813 5814 5815 5817 5817 5818 5818 5817 5817 5816 5815 5813 5811 5808 5806 5803 5801 5799 5797 5794 5792 5790 5788 5785 5783 5780 5777 5774 5771 5768 5766 5763 5760 5757 5755 5751 5749 5745 5744 5743
5805 5807 5808 5809 5810 5810 5811 5813 5813 5813 5813 5813 5812 5811 5810 5808 5806 5804 5801 5799 5796 5794 5791 5789 5787 5785 5783 5780 5778 5775 5773 5770 5767 5765 5762 5759 5756 5754 5751 5748 5746 5743 5741 5740
5802 5803 5805 5806 5806 5807 5808 5809 5808 5809 5809 5808 5807 5807 5805 5803 5801 5799 5796 5794 5792 5789 5787 5785 5783 5781 5779 5776 5773 5771 5768 5766 5763 5761 5758 5756 5753 5751 5748 5746 5743 5740 5738 5737
5799 5800 5801 5801 5803 5803 5806 5804 5804 5804 5804 5803 5803 5802 5801 5799 5797 5794 5792 5790 5787 5785 5783 5781 5779 5777 5775 5772 5770 5767 5765 5762 5760 5758 5755 5753 5750 5748 5746 5743 5740 5738 5736 5734
5796 5797 5798 5799 5799 5800 5801 5801 5801 5801 5800 5800 5799 5798 5796 5795 5792 5790 5788 5786 5784 5782 5780 5778 5776 5774 5771 5769 5766 5763 5761 5759 5757 5755 5753 5751 5749 5746 5744 5741 5739 5737 5735 5733
5794 5795 5796 5796 5796 5797 5799 5798 5798 5798 5797 5797 5795 5794 5792 5790 5789 5788 5785 5783 5781 5779 5777 5775 5773 5770 5768 5766 5763 5761 5759 5757 5755 5753 5751 5749 5747 5745 5743 5741 5739 5737 5735 5733
5792 5792 5793 5793 5794 5794 5795 5795 5795 5796 5795 5793 5792 5790 5788 5787 5786 5784 5782 5779 5778 5775 5774 5772 5770 5768 5765 5763 5761 5759 5757 5755 5753 5751 5750 5748 5746 5744 5743 5741 5739 5737 5735 5733
5790 5790 5791 5791 5792 5794 5793 5792 5792 5792 5791 5790 5789 5787 5785 5783 5782 5780 5779 5777 5775 5773 5771 5769 5767 5765 5763 5761 5759 5758 5756 5754 5752 5750 5749 5747 5746 5744 5743 5741 5739 5737 5735 5733
5788 5789 5789 5791 5792 5791 5790 5789 5789 5788 5788 5787 5786 5784 5782 5781 5779 5778 5776 5774 5773 5771 5769 5767 5766 5764 5762 5760 5758 5757 5755 5753 5751 5750 5749 5747 5746 5744 5743 5741 5739 5737 5736 5734
5787 5787 5788 5788 5788 5788 5787 5787 5786 5786 5785 5784 5783 5782 5780 5778 5777 5775 5774 5772 5770 5769 5767 5766 5764 5762 5761 5759 5757 5756 5754 5753 5751 5750 5749 5747 5746 5744 5743 5741 5740 5738 5736 5734
5785 5785 5785 5785 5786 5786 5785 5785 5784 5784 5783 5782 5781 5779 5778 5776 5775 5773 5772 5770 5768 5767 5765 5764 5763 5761 5760 5758 5757 5755 5754 5753 5752 5750 5749 5747 5746 5745 5743 5742 5740 5739 5737 5735
5783 5784 5784 5785 5785 5784 5784 5783 5783 5782 5781 5780 5779 5778 5776 5775 5774 5772 5771 5769 5767 5766 5764 5763 5762 5760 5759 5758 5757 5755 5754 5753 5752 5751 5749 5748 5747 5746 5744 5743 5742 5740 5738 5737